Regional Weather Roundup
Issued by NWS

Home | Current Version | Previous Version | Graphics & Text | Print | Product List | Glossary On
Versions: 1 2 3 4 5 6 7 8 9 10 11 12 13 14 15 16 17 18 19 20 21 22 23 24 25 26 27 28 29 30 31 32 33 34 35 36 37 38 39 40 41 42 43 44 45 46 47 48 49 50
264
ASUS43 KIND 250509
RWRIN

WEATHER ROUNDUP FOR INDIANA
NATIONAL WEATHER SERVICE INDIANAPOLIS IN
100 AM EDT THU MAY 25 2017

NOTE: "FAIR" INDICATES FEW OR NO CLOUDS BELOW 12,000 FEET WITH NO
SIGNIFICANT WEATHER AND/OR OBSTRUCTIONS TO VISIBILITY.

* - STATION DOES NOT REPORT WEATHER SUCH AS PRECIPITATION OR FOG.

+ - STATION NOT QUALITY CONTROLLED BY THE NATIONAL WEATHER SERVICE.
    USE DATA WITH CAUTION...ESPECIALLY DEWPOINT AND RELATIVE
    HUMIDITY OBSERVATIONS.

INZ001>003-010>013-019-020-250600-
NORTHWEST INDIANA

CITY           SKY/WX    TMP DP  RH WIND       PRES   REMARKS
GARY /AIRPORT/ CLOUDY    51  50  93 NW14      29.54F
KNOX *+        CLOUDY    54  54 100 N10       29.48S
LA PORTE +     CLOUDY    56  55  99 N13G20    29.50S FOG
MICHIGAN CITY+ CLOUDY    54  54 100 N9        29.52S
MONTICELLO +   CLOUDY    53  51  95 NW14      29.47S FOG
RENSSELAER +   CLOUDY    52  50  93 NW10      29.50S FOG
VALPARAISO     CLOUDY    53  52  96 NW12      29.51S FOG

$$

LMZ046-743>745-250600-
SOUTHERN LAKE MICHIGAN

STATION/POSITION TIME  TEMP    WIND        PRES    WAVE
                       AIR SEA DIR/SP/G            HT
                 (UTC) (F)     (DEG/KT/KT) (MB)    (FT)
BURNS HARBOR     0440   49     340/ 16/ 23 1000.3S
MICHIGAN CITY    0440   51     330/ 19/ 21   N/A
5NW MICH CITY    0500   50 53  340/ 17/ 21   N/A     5

$$

INZ004-005-014>016-021>024-250600-
NORTH CENTRAL INDIANA

CITY           SKY/WX    TMP DP  RH WIND       PRES   REMARKS
GOSHEN         CLOUDY    59  55  87 N13       29.44F FOG
LOGANSPORT +   CLOUDY    55  54  94 NW10G16   29.44F FOG
PERU/GRISSOM   LGT RAIN  59  59 100 N14       29.40F
ROCHESTER +    CLOUDY   N/A N/A N/A N10G17    29.44F
SOUTH BEND     CLOUDY    58  57  97 N12       29.48F FOG
WARSAW +       CLOUDY    59  55  88 N12G17    29.44S FOG

$$

INZ006>009-017-018-025>027-250600-
NORTHEAST INDIANA

CITY           SKY/WX    TMP DP  RH WIND       PRES   REMARKS
ANGOLA *+      CLOUDY    57  46  67 NE9       29.44S
AUBURN +       RAIN      59  55  88 NE8G16    29.43F
FORT WAYNE     RAIN      59  57  93 N14       29.38F FOG
HUNTINGTON +   RAIN      58  57  95 N10G17    29.38F

$$

INZ028-029-035-036-043>045-051>053-250600-
WEST CENTRAL INDIANA

CITY           SKY/WX    TMP DP  RH WIND       PRES   REMARKS
CRAWFORDSVL +  CLOUDY    54  54 100 NW10      29.47S FOG
GREENCASTLE +  CLOUDY    55  54  94 NW5       29.47S
LAFAYETTE      CLOUDY    53  53 100 NW12      29.48R FOG
TERRE HAUTE    CLOUDY    57  54  89 NW10      29.49R

$$

INZ030>032-037>040-046>048-054>057-064-065-250600-
CENTRAL INDIANA

CITY           SKY/WX    TMP DP  RH WIND       PRES   REMARKS
CP ATTERBURY + CLOUDY    59  55  88 W6        29.43S
FISHERS *+     CLOUDY    57  57 100 NW8       29.41F
FRANKFORT +    CLOUDY    58  56  95 NW16      29.46S FOG
GREENWOOD *+   CLOUDY    59  56  92 NW5       29.43S
INDIANAPOLIS   CLOUDY    59  55  87 NW12      29.43S
-EAGLE CREEK   LGT RAIN  59  56  89 NW12      29.42S
KOKOMO +       RAIN      58  57  97 N14       29.41F FOG
SHELBYVILLE    LGT RAIN  60  56  86 W9        29.40S
ZIONSVILLE +   DRIZZLE   57  56  97 NW9       29.42F

$$

INZ033-034-041-042-049-050-058-059-250600-
EAST CENTRAL INDIANA

CITY           SKY/WX    TMP DP  RH WIND       PRES   REMARKS
MUNCIE         RAIN      60  58  92 N7        29.37S FOG
RICHMOND +     LGT RAIN  55  55 100 W5        29.39R

$$

INZ060-061-067>069-081>083-085>088-250600-
SOUTHWEST INDIANA

CITY           SKY/WX    TMP DP  RH WIND       PRES   REMARKS
EVANSVILLE     CLOUDY    59  55  87 W7        29.53R
HUNTINGBURG *+ CLOUDY    57  55  94 W8        29.50S
WASHINGTON +   CLOUDY    57  54  89 NW14      29.49S

$$

INZ062-063-066-070>080-084-089>092-250600-
SOUTH CENTRAL AND SOUTHEAST INDIANA

CITY           SKY/WX    TMP DP  RH WIND       PRES   REMARKS
BLOOMINGTON    CLOUDY    57  54  89 NW8       29.46R
NORTH VERNON + DRIZZLE   57  55  94 W7        29.43R
SEYMOUR +      CLOUDY    59  59 100 W10       29.43S

$$





USA.gov is the U.S. government's official web portal to all federal, state and local government web resources and services.